Regional Weather Roundup
Issued by NWS

Home | Current Version | Previous Version | Graphics & Text | Print | Product List | Glossary On
Versions: 1 2 3 4 5 6 7 8 9 10 11 12 13 14 15 16 17 18 19 20 21 22 23 24 25 26 27 28 29 30 31 32 33 34 35 36 37 38 39 40 41 42 43 44 45 46 47 48 49 50
000
ASUS45 KPSR 241710
RWRAZ

ARIZONA REGIONAL HOURLY WEATHER ROUNDUP
NATIONAL WEATHER SERVICE PHOENIX AZ
1000 AM MST FRI OCT 24 2014

NOTE: FAIR INDICATES FEW OR NO CLOUDS BELOW 12,000 FEET WITH NO
SIGNIFICANT WEATHER AND/OR OBSTRUCTIONS TO VISIBILITY.

AZZ001>003-036-241800-
NORTHWEST ARIZONA

CITY           SKY/WX    TMP DP  RH WIND       PRES   REMARKS
BULLHEAD CITY  SUNNY     75  43  31 CALM      30.07S
KINGMAN        SUNNY     77  40  26 E8        30.20S
$$

AZZ004>008-015-016-018-241800-
NORTH CENTRAL ARIZONA

CITY           SKY/WX    TMP DP  RH WIND       PRES   REMARKS
GRAND CANYON   SUNNY     67  35  30 VRB3      30.39S
PRESCOTT       SUNNY     65  38  36 CALM      30.31R
FLAGSTAFF      SUNNY     64  36  35 VRB6      30.42R
PAYSON         SUNNY     72  45  37 VRB5      30.33S
PAGE           SUNNY     65  33  30 NE3       30.29S
$$

AZZ009>014-017-241800-
NORTHEAST ARIZONA

CITY           SKY/WX    TMP DP  RH WIND       PRES   REMARKS
WINSLOW        SUNNY     64  39  39 E7        30.33S
SAINT JOHNS    SUNNY     63  38  39 CALM      30.36S
WINDOW ROCK    SUNNY     63  32  31 CALM      30.42F
SHOW LOW       SUNNY     68  39  34 SW6       30.41S
$$

AZZ023-241800-
GREATER PHOENIX AREA

CITY           SKY/WX    TMP DP  RH WIND       PRES   REMARKS
PHOENIX        SUNNY     82  48  30 SE9       30.06S
BUCKEYE          N/A     82  45  26 E14       30.06S
GLENDALE       SUNNY     79  48  34 CALM      30.09R
LUKE AFB       SUNNY     79  48  33 CALM      30.06S
DEER VALLEY    SUNNY     79  46  31 S3        30.08R
SCOTTSDALE     SUNNY     78  50  37 SW3       30.10R
MESA-GATEWAY   SUNNY     75  50  41 N6        30.10R
CHANDLER       SUNNY     77  52  41 CALM      30.08
$$

AZZ027-028-241800-
SOUTHWEST MARICOPA COUNTY AND PINAL COUNTY

CITY           SKY/WX    TMP DP  RH WIND       PRES   REMARKS
CASA GRANDE    SUNNY     75  48  38 CALM      30.09S
GILA BEND      SUNNY     81  48  32 NE5       30.05S
$$

AZZ503-504-507>509-241800-
SOUTHEAST ARIZONA

CITY           SKY/WX    TMP DP  RH WIND       PRES   REMARKS
TUCSON         SUNNY     79  47  32 SE6       30.16S
DAVIS-MONTHAN  SUNNY     80  48  33 S5        30.14S
RYAN FIELD       N/A     79  52  38 SE5       30.15S
NOGALES        SUNNY     78  47  33 CALM      30.22S
SIERRA VISTA   SUNNY     75  45  33 SE7       30.28S
DOUGLAS        SUNNY     73  47  39 W3        30.26S
SAFFORD        SUNNY     72  47  40 SE8       30.21S
$$

AZZ020-021-025-026-031-241800-
SOUTHWEST ARIZONA

CITY           SKY/WX    TMP DP  RH WIND       PRES   REMARKS
YUMA           SUNNY     84  47  27 N8        29.99R
$$

CAZ031-033-041-043-047-048-061-241800-
SOUTHERN CALIFORNIA

CITY           SKY/WX    TMP DP  RH WIND       PRES   REMARKS
DOWNTOWN L.A.  SUNNY     76  42  29 VRB3      29.98F
L.A. AIRPORT   MOSUNNY   72  52  49 SE6       29.99S
SAN DIEGO      SUNNY     76  53  44 CALM      30.00S
BURBANK        SUNNY     73  42  32 CALM      30.01S
ONTARIO        SUNNY     77  37  23 S3        30.03R
RIVERSIDE      SUNNY     76  41  28 CALM      30.02S
PALM SPRINGS   SUNNY     85  34  16 CALM      30.02R
EL CENTRO NAS  SUNNY     81  44  27 W3        29.98S
IMPERIAL       SUNNY     80  47  31 NW5       29.98R
BLYTHE         SUNNY     77  46  33 CALM      30.02S
NEEDLES        SUNNY     77  40  26 CALM      30.07R
$$

NVZ020-UTZ003-241800-
SOUTHERN NEVADA-UTAH

CITY           SKY/WX    TMP DP  RH WIND       PRES   REMARKS
LAS VEGAS      SUNNY     74  37  26 CALM      30.10R
SALT LAKE CITY SUNNY     64  38  38 CALM      30.18R
$$

NMZ009-TXZ055-241800-
NEW MEXICO-WEST TEXAS

CITY           SKY/WX    TMP DP  RH WIND       PRES   REMARKS
ALBUQUERQUE    SUNNY     64  33  31 N3        30.36S
EL PASO        SUNNY     69  52  54 CALM      30.27S
$$


........................KEY........................
SKY/WX - SKY CONDITION/WEATHER
TMP    - TEMPERATURE IN FAHRENHEIT
DP     - DEW POINT IN FAHRENHEIT
RH     - RELATIVE HUMIDITY IN PERCENT
WIND   - DIRECTION AND SPEED IN MILES PER HOUR (MPH)
VRB    - VARIABLE WIND DIRECTION
PRES   - MEAN SEA LEVEL PRESSURE IN INCHES OF MERCURY
         F - FALLING PRESSURE   R - RISING PRESSURE
         S - STEADY PRESSURE
VSB    - VISIBILITY IN MILES
HX     - HEAT INDEX IN FAHRENHEIT
WCI    - WIND CHILL INDEX IN FAHRENHEIT
TC     - TEMPERATURE IN CELSIUS WHICH IS ALSO KNOWN AS
         TEMPERATURE IN CENTIGRADE
AFB    - AIR FORCE BASE
         LUKE AFB IS LUKE AIR FORCE BASE
         DAVIS-MONTHAN IS DAVIS-MONTHAN AIR FORCE BASE
NAS    - NAVAL AIR STATION
         EL CENTRO NAS IS EL CENTRO NAVAL AIR STATION
N/A    - NOT AVAILABLE



USA.gov is the U.S. government's official web portal to all federal, state and local government web resources and services.